DLH5EC EDDF-EDDM

Flight info

Callsign DLH5EC
Flight time 0h 35m
Altitude 23000
Route CINDY8S CINDY Z74 HAREM T104 ROKIL ROKIL1A
Aircraft A320/M-SDE3FGHIRWY/LB1

Departure

Time 2026-05-06 07:55
Airport Frankfurt Main Airport (EDDF)

Arrival

Time 2026-05-06 08:30
Airport Munich Airport (EDDM)
Time Latitude Longitude Altitude Speed Heading
2026-05-06 07:08 50.04853 8.56941 364 ft 0 kts 295°
2026-05-06 07:44 50.04851 8.56950 363 ft 4 kts 294°
2026-05-06 07:44 50.04841 8.56988 364 ft 4 kts 287°
2026-05-06 07:44 50.04835 8.57029 363 ft 4 kts 269°
2026-05-06 07:44 50.04840 8.57065 363 ft 4 kts 219°
2026-05-06 07:45 50.04849 8.57074 368 ft 1 kts 204°
2026-05-06 07:45 50.04850 8.57074 368 ft 0 kts 204°
2026-05-06 07:47 50.04841 8.57068 363 ft 6 kts 204°
2026-05-06 07:48 50.04790 8.57031 363 ft 10 kts 205°
2026-05-06 07:48 50.04720 8.56981 365 ft 12 kts 205°
2026-05-06 07:48 50.04638 8.56925 365 ft 14 kts 201°
2026-05-06 07:48 50.04541 8.56888 363 ft 13 kts 193°
2026-05-06 07:49 50.04456 8.56831 363 ft 14 kts 235°
2026-05-06 07:49 50.04413 8.56668 363 ft 18 kts 248°
2026-05-06 07:49 50.04367 8.56477 367 ft 20 kts 249°
2026-05-06 07:49 50.04318 8.56269 366 ft 21 kts 249°
2026-05-06 07:50 50.04267 8.56056 366 ft 22 kts 249°
2026-05-06 07:50 50.04217 8.55846 365 ft 20 kts 250°
2026-05-06 07:50 50.04167 8.55637 367 ft 21 kts 250°
2026-05-06 07:50 50.04114 8.55416 364 ft 22 kts 250°
2026-05-06 07:51 50.04060 8.55187 365 ft 23 kts 249°
2026-05-06 07:51 50.04002 8.54950 365 ft 24 kts 250°
2026-05-06 07:51 50.03944 8.54707 364 ft 23 kts 250°
2026-05-06 07:51 50.03889 8.54481 365 ft 23 kts 249°
2026-05-06 07:52 50.03814 8.54266 362 ft 23 kts 236°
2026-05-06 07:52 50.03755 8.54036 364 ft 23 kts 249°
2026-05-06 07:52 50.03708 8.53839 363 ft 19 kts 250°
2026-05-06 07:52 50.03661 8.53641 366 ft 20 kts 249°
2026-05-06 07:53 50.03609 8.53437 363 ft 21 kts 250°
2026-05-06 07:53 50.03558 8.53223 365 ft 22 kts 250°
2026-05-06 07:53 50.03506 8.53006 362 ft 21 kts 249°
2026-05-06 07:53 50.03452 8.52800 365 ft 20 kts 245°
2026-05-06 07:54 50.03413 8.52648 367 ft 13 kts 246°
2026-05-06 07:54 50.03366 8.52593 365 ft 9 kts 179°
2026-05-06 07:54 50.03227 8.52595 363 ft 46 kts 180°
2026-05-06 07:54 50.02664 8.52599 368 ft 112 kts 179°
2026-05-06 07:55 50.01710 8.52605 390 ft 158 kts 182°
2026-05-06 07:55 50.00581 8.52607 1061 ft 157 kts 181°
2026-05-06 07:55 49.99487 8.52608 1785 ft 158 kts 183°
2026-05-06 07:55 49.98329 8.52611 2216 ft 176 kts 184°
2026-05-06 07:56 49.97044 8.52992 2518 ft 205 kts 158°
2026-05-06 07:56 49.95918 8.54591 2896 ft 235 kts 124°
2026-05-06 07:56 49.95131 8.56814 3717 ft 239 kts 122°
2026-05-06 07:56 49.94342 8.59146 4601 ft 244 kts 114°
2026-05-06 07:57 49.93981 8.61817 5215 ft 264 kts 96°
2026-05-06 07:57 49.93856 8.64777 5757 ft 282 kts 96°
2026-05-06 07:57 49.93471 8.67785 6533 ft 286 kts 114°
2026-05-06 07:57 49.92508 8.70464 7418 ft 284 kts 133°
2026-05-06 07:58 49.91091 8.72513 8309 ft 282 kts 148°
2026-05-06 07:58 49.89494 8.74295 9217 ft 285 kts 144°
2026-05-06 07:58 49.88104 8.76545 10036 ft 296 kts 130°
2026-05-06 07:58 49.86981 8.79387 10342 ft 322 kts 122°
2026-05-06 07:59 49.85848 8.82521 10609 ft 344 kts 122°
2026-05-06 07:59 49.84669 8.85812 11198 ft 353 kts 122°
2026-05-06 07:59 49.83468 8.89165 11942 ft 357 kts 122°
2026-05-06 07:59 49.82233 8.92595 12714 ft 361 kts 122°
2026-05-06 08:00 49.81000 8.96002 13470 ft 364 kts 122°
2026-05-06 08:00 49.79767 8.99387 14151 ft 367 kts 122°
2026-05-06 08:00 49.78498 9.02872 14825 ft 371 kts 122°
2026-05-06 08:00 49.77171 9.06517 15508 ft 374 kts 122°
2026-05-06 08:01 49.76135 9.10017 16128 ft 381 kts 112°
2026-05-06 08:01 49.75417 9.14049 16773 ft 386 kts 108°
2026-05-06 08:01 49.74501 9.17886 17404 ft 385 kts 118°
2026-05-06 08:01 49.73104 9.21466 18052 ft 384 kts 130°
2026-05-06 08:02 49.71368 9.24619 18601 ft 386 kts 134°
2026-05-06 08:02 49.69586 9.27730 19138 ft 389 kts 134°
2026-05-06 08:02 49.67791 9.30883 19658 ft 392 kts 134°
2026-05-06 08:02 49.65984 9.34076 20173 ft 396 kts 134°
2026-05-06 08:03 49.64178 9.37276 20677 ft 399 kts 134°
2026-05-06 08:03 49.62340 9.40529 21171 ft 402 kts 134°
2026-05-06 08:03 49.60492 9.43788 21658 ft 405 kts 134°
2026-05-06 08:03 49.58624 9.47080 22127 ft 409 kts 134°
2026-05-06 08:04 49.56743 9.50392 22545 ft 413 kts 135°
2026-05-06 08:04 49.55457 9.52653 22737 ft 416 kts 135°
2026-05-06 08:04 49.52896 9.57140 22809 ft 424 kts 135°
2026-05-06 08:04 49.51580 9.59442 22789 ft 425 kts 135°
2026-05-06 08:05 49.49622 9.62863 22794 ft 426 kts 135°
2026-05-06 08:05 49.47662 9.66286 22807 ft 426 kts 135°
2026-05-06 08:05 49.45700 9.69708 22812 ft 427 kts 135°
2026-05-06 08:05 49.43740 9.73125 22815 ft 426 kts 135°
2026-05-06 08:06 49.41771 9.76544 22815 ft 426 kts 135°
2026-05-06 08:06 49.39805 9.79956 22813 ft 426 kts 135°
2026-05-06 08:06 49.37839 9.83359 22795 ft 426 kts 135°
2026-05-06 08:06 49.35846 9.86804 22790 ft 426 kts 135°
2026-05-06 08:07 49.33904 9.90163 22793 ft 425 kts 135°
2026-05-06 08:07 49.31940 9.93553 22795 ft 425 kts 135°
2026-05-06 08:07 49.29975 9.96941 22801 ft 424 kts 135°
2026-05-06 08:07 49.28006 10.00330 22810 ft 424 kts 135°
2026-05-06 08:08 49.26048 10.03692 22812 ft 423 kts 135°
2026-05-06 08:08 49.24078 10.07066 22812 ft 423 kts 135°
2026-05-06 08:08 49.22121 10.10416 22814 ft 423 kts 135°
2026-05-06 08:08 49.20165 10.13764 22810 ft 423 kts 135°
2026-05-06 08:09 49.18203 10.17120 22821 ft 422 kts 135°
2026-05-06 08:09 49.16244 10.20468 22820 ft 422 kts 135°
2026-05-06 08:09 49.14263 10.23854 22803 ft 422 kts 136°
2026-05-06 08:09 49.12275 10.27177 22804 ft 421 kts 137°
2026-05-06 08:10 49.10290 10.30391 22819 ft 421 kts 137°
2026-05-06 08:10 49.08238 10.33652 22819 ft 420 kts 138°
2026-05-06 08:10 49.06231 10.36827 22828 ft 420 kts 138°
2026-05-06 08:10 49.04208 10.40037 22817 ft 420 kts 138°
2026-05-06 08:11 49.02173 10.43282 22827 ft 420 kts 137°
2026-05-06 08:11 49.00142 10.46531 22834 ft 420 kts 137°
2026-05-06 08:11 48.98129 10.49747 22838 ft 420 kts 137°
2026-05-06 08:11 48.96113 10.52959 22836 ft 419 kts 138°
2026-05-06 08:12 48.94095 10.56170 22832 ft 419 kts 138°
2026-05-06 08:12 48.92078 10.59377 22818 ft 419 kts 138°
2026-05-06 08:12 48.90025 10.62639 22828 ft 419 kts 138°
2026-05-06 08:12 48.88004 10.65846 22833 ft 419 kts 138°
2026-05-06 08:13 48.85990 10.69043 22830 ft 419 kts 138°
2026-05-06 08:13 48.83977 10.72238 22829 ft 419 kts 138°
2026-05-06 08:13 48.81965 10.75424 22830 ft 418 kts 138°
2026-05-06 08:13 48.79948 10.78609 22830 ft 418 kts 138°
2026-05-06 08:14 48.77929 10.81782 22838 ft 417 kts 138°
2026-05-06 08:14 48.75909 10.84948 22851 ft 416 kts 138°
2026-05-06 08:14 48.73895 10.88101 22851 ft 416 kts 138°
2026-05-06 08:14 48.71887 10.91240 22852 ft 415 kts 138°
2026-05-06 08:15 48.69877 10.94380 22831 ft 414 kts 138°
2026-05-06 08:15 48.67886 10.97490 22595 ft 409 kts 139°
2026-05-06 08:15 48.65910 11.00574 22005 ft 404 kts 139°
2026-05-06 08:15 48.63963 11.03609 21420 ft 400 kts 138°
2026-05-06 08:16 48.62030 11.06612 20852 ft 396 kts 138°
2026-05-06 08:16 48.60117 11.09576 20292 ft 393 kts 138°
2026-05-06 08:16 48.58184 11.12472 19743 ft 387 kts 142°
2026-05-06 08:16 48.56030 11.14912 19186 ft 381 kts 149°
2026-05-06 08:17 48.53909 11.17331 18670 ft 382 kts 141°
2026-05-06 08:17 48.52151 11.20271 18145 ft 384 kts 129°
2026-05-06 08:17 48.50798 11.23748 17569 ft 386 kts 117°
2026-05-06 08:17 48.49911 11.27632 16953 ft 387 kts 108°
2026-05-06 08:18 48.49225 11.31544 16365 ft 385 kts 108°
2026-05-06 08:18 48.48539 11.35428 15807 ft 384 kts 108°
2026-05-06 08:18 48.47850 11.39283 15476 ft 376 kts 109°
2026-05-06 08:18 48.47182 11.43015 15347 ft 363 kts 109°
2026-05-06 08:19 48.46532 11.46640 15072 ft 355 kts 109°
2026-05-06 08:19 48.45887 11.50207 14677 ft 351 kts 109°
2026-05-06 08:19 48.45242 11.53763 14277 ft 348 kts 109°
2026-05-06 08:19 48.44612 11.57233 13887 ft 345 kts 109°
2026-05-06 08:20 48.44053 11.60730 13478 ft 344 kts 102°
2026-05-06 08:20 48.43904 11.64303 13224 ft 339 kts 91°
2026-05-06 08:20 48.44125 11.67819 12902 ft 335 kts 86°
2026-05-06 08:20 48.44395 11.71291 12501 ft 332 kts 86°
2026-05-06 08:21 48.44663 11.74743 12071 ft 331 kts 86°
2026-05-06 08:21 48.44927 11.78169 11662 ft 329 kts 86°
2026-05-06 08:21 48.45188 11.81584 11272 ft 326 kts 86°
2026-05-06 08:21 48.45446 11.84969 10885 ft 324 kts 86°
2026-05-06 08:22 48.45702 11.88319 10632 ft 317 kts 86°
2026-05-06 08:22 48.45949 11.91566 10511 ft 306 kts 86°
2026-05-06 08:22 48.46188 11.94716 10309 ft 299 kts 86°
2026-05-06 08:22 48.46422 11.97856 9987 ft 297 kts 86°
2026-05-06 08:23 48.46643 12.00898 9657 ft 295 kts 86°
2026-05-06 08:23 48.46860 12.03957 9287 ft 293 kts 86°
2026-05-06 08:23 48.47073 12.06993 8925 ft 291 kts 86°
2026-05-06 08:23 48.47284 12.10019 8559 ft 288 kts 86°
2026-05-06 08:24 48.47489 12.13014 8197 ft 286 kts 86°
2026-05-06 08:24 48.47511 12.15976 7829 ft 280 kts 104°
2026-05-06 08:24 48.46738 12.18592 7477 ft 271 kts 132°
2026-05-06 08:24 48.45291 12.20236 7339 ft 256 kts 160°
2026-05-06 08:25 48.43598 12.20563 7169 ft 237 kts 190°
2026-05-06 08:25 48.42135 12.19594 6764 ft 233 kts 220°
2026-05-06 08:25 48.41093 12.17714 6431 ft 236 kts 233°
2026-05-06 08:25 48.40178 12.15671 6028 ft 235 kts 234°
2026-05-06 08:26 48.39287 12.13593 5595 ft 237 kts 239°
2026-05-06 08:26 48.38844 12.11225 5275 ft 238 kts 262°
2026-05-06 08:26 48.38672 12.08752 4960 ft 237 kts 263°
2026-05-06 08:26 48.38501 12.06301 4648 ft 236 kts 263°
2026-05-06 08:27 48.38322 12.03861 4328 ft 231 kts 263°
2026-05-06 08:27 48.38146 12.01497 4017 ft 224 kts 263°
2026-05-06 08:27 48.37975 11.99202 3721 ft 216 kts 263°
2026-05-06 08:27 48.37813 11.97041 3456 ft 200 kts 263°
2026-05-06 08:28 48.37664 11.95056 3199 ft 184 kts 264°
2026-05-06 08:28 48.37527 11.93224 2965 ft 170 kts 264°
2026-05-06 08:28 48.37397 11.91508 2747 ft 160 kts 264°
2026-05-06 08:28 48.37277 11.89906 2533 ft 152 kts 264°
2026-05-06 08:29 48.37158 11.88328 2320 ft 150 kts 264°
2026-05-06 08:29 48.37044 11.86778 2107 ft 149 kts 263°
2026-05-06 08:29 48.36933 11.85230 1928 ft 149 kts 264°
2026-05-06 08:29 48.36809 11.83692 1746 ft 148 kts 263°
2026-05-06 08:30 48.36691 11.82153 1518 ft 147 kts 263°
2026-05-06 08:30 48.36576 11.80716 1465 ft 117 kts 265°
2026-05-06 08:30 48.36534 11.80073 1464 ft 76 kts 263°
2026-05-06 08:30 48.36474 11.79303 1470 ft 44 kts 263°
2026-05-06 08:31 48.36422 11.78948 1463 ft 32 kts 239°
2026-05-06 08:31 48.36297 11.78697 1463 ft 26 kts 232°
2026-05-06 08:31 48.36228 11.78558 1460 ft 19 kts 232°
2026-05-06 08:31 48.36112 11.78481 1459 ft 19 kts 175°
2026-05-06 08:32 48.36033 11.78564 1463 ft 16 kts 89°
2026-05-06 08:32 48.36046 11.78737 1467 ft 18 kts 83°
2026-05-06 08:32 48.36061 11.78928 1468 ft 19 kts 83°
2026-05-06 08:32 48.36077 11.79134 1464 ft 18 kts 83°
2026-05-06 08:33 48.36078 11.79304 1468 ft 15 kts 117°
2026-05-06 08:33 48.35986 11.79336 1467 ft 14 kts 173°
2026-05-06 08:33 48.35902 11.79384 1462 ft 14 kts 120°
2026-05-06 08:33 48.35825 11.79457 1462 ft 14 kts 172°
2026-05-06 08:34 48.35721 11.79476 1463 ft 16 kts 174°
2026-05-06 08:34 48.35482 11.79518 1464 ft 18 kts 173°
2026-05-06 08:34 48.35355 11.79539 1458 ft 16 kts 173°
2026-05-06 08:35 48.35261 11.79555 1467 ft 4 kts 174°
2026-05-06 08:35 48.35242 11.79564 1459 ft 2 kts 143°
2026-05-06 08:35 48.35236 11.79599 1463 ft 4 kts 94°
2026-05-06 08:35 48.35237 11.79652 1467 ft 5 kts 85°
2026-05-06 08:36 48.35242 11.79700 1467 ft 4 kts 82°
2026-05-06 08:36 48.35245 11.79736 1463 ft 3 kts 84°
2026-05-06 08:36 48.35246 11.79759 1467 ft 2 kts 84°
2026-05-06 08:36 48.35247 11.79768 1467 ft 0 kts 84°